| time (UTC) | temp F | wind direction | speed MPH | gust MPH | rain 1hr in | rain 24hr in | rain mn in | humidity % | barometer mb |
| 20260503230322 | 63 | 216 | 1.0 | 3.0 | 0.00 | 0.00 | 0.00 | 31 | |
| 20260503225820 | 63 | 164 | 6.0 | 9.0 | 0.00 | 0.00 | 0.00 | 28 | |
| 20260503225316 | 62 | 172 | 2.0 | 7.0 | 0.00 | 0.00 | 0.00 | 29 | |
| 20260503224812 | 62 | 250 | 8.0 | 9.0 | 0.00 | 0.00 | 0.00 | 29 | |
| 20260503224310 | 63 | 301 | 4.0 | 8.0 | 0.00 | 0.00 | 0.00 | 29 | |
| 20260503223807 | 64 | 237 | 5.0 | 6.0 | 0.00 | 0.00 | 0.00 | 30 | |
| 20260503223305 | 64 | 222 | 4.0 | 6.0 | 0.00 | 0.00 | 0.00 | 29 | |
| 20260503222800 | 65 | 172 | 3.0 | 6.0 | 0.00 | 0.00 | 0.00 | 30 | |
| 20260503222259 | 63 | 253 | 4.0 | 4.0 | 0.00 | 0.00 | 0.00 | 31 | |
| 20260503221757 | 64 | 105 | 2.0 | 3.0 | 0.00 | 0.00 | 0.00 | 31 | |
| 20260503221254 | 64 | 245 | 3.0 | 7.0 | 0.00 | 0.00 | 0.00 | 29 | |
| 20260503220751 | 64 | 150 | 3.0 | 4.0 | 0.00 | 0.00 | 0.00 | 29 | |
| 20260503220248 | 63 | 239 | 4.0 | 7.0 | 0.00 | 0.00 | 0.00 | 30 | |
| 20260503215744 | 64 | 250 | 9.0 | 10.0 | 0.00 | 0.00 | 0.00 | 28 | |
| 20260503215242 | 65 | 226 | 8.0 | 9.0 | 0.00 | 0.00 | 0.00 | 28 | |
| 20260503214740 | 64 | 238 | 4.0 | 7.0 | 0.00 | 0.00 | 0.00 | 29 | |
| 20260503214236 | 66 | 250 | 6.0 | 8.0 | 0.00 | 0.00 | 0.00 | 29 | |
| 20260503213734 | 64 | 180 | 3.0 | 3.0 | 0.00 | 0.00 | 0.00 | 28 | |
| 20260503213231 | 63 | 233 | 2.0 | 6.0 | 0.00 | 0.00 | 0.00 | 31 | |
| 20260503212728 | 63 | 223 | 3.0 | 7.0 | 0.00 | 0.00 | 0.00 | 30 | |
| 20260503212226 | 64 | 257 | 8.0 | 10.0 | 0.00 | 0.00 | 0.00 | 29 | |
| 20260503211723 | 63 | 252 | 4.0 | 10.0 | 0.00 | 0.00 | 0.00 | 28 | |
| 20260503211219 | 63 | 255 | 8.0 | 15.0 | 0.00 | 0.00 | 0.00 | 29 | |
| 20260503210715 | 63 | 246 | 6.0 | 8.0 | 0.00 | 0.00 | 0.00 | 30 | |
| 20260503210212 | 62 | 192 | 7.0 | 11.0 | 0.00 | 0.00 | 0.00 | 29 | |
| 20260503205707 | 62 | 65 | 2.0 | 8.0 | 0.00 | 0.00 | 0.00 | 29 | |
| 20260503205204 | 62 | 64 | 4.0 | 11.0 | 0.00 | 0.00 | 0.00 | 30 | |
| 20260503204700 | 62 | 285 | 7.0 | 9.0 | 0.00 | 0.00 | 0.00 | 31 | |
| 20260503204158 | 62 | 16 | 6.0 | 10.0 | 0.00 | 0.00 | 0.00 | 29 | |
| 20260503203655 | 63 | 2 | 9.0 | 10.0 | 0.00 | 0.00 | 0.00 | 28 | |
| 20260503203153 | 62 | 217 | 0.0 | 3.0 | 0.00 | 0.00 | 0.00 | 28 | |
| 20260503202649 | 63 | 229 | 7.0 | 8.0 | 0.00 | 0.00 | 0.00 | 29 | |
| 20260503202148 | 62 | 227 | 4.0 | 6.0 | 0.00 | 0.00 | 0.00 | 30 | |
| 20260503201646 | 62 | 188 | 3.0 | 9.0 | 0.00 | 0.00 | 0.00 | 30 | |
| 20260503201143 | 62 | 337 | 5.0 | 13.0 | 0.00 | 0.00 | 0.00 | 28 | |
| 20260503200638 | 61 | 177 | 9.0 | 18.0 | 0.00 | 0.00 | 0.00 | 30 | |
| 20260503200135 | 61 | 348 | 4.0 | 4.0 | 0.00 | 0.00 | 0.00 | 30 | |
| 20260503195632 | 62 | 207 | 9.0 | 13.0 | 0.00 | 0.00 | 0.00 | 29 | |
| 20260503195129 | 61 | 130 | 5.0 | 8.0 | 0.00 | 0.00 | 0.00 | 30 | |
| 20260503194626 | 61 | 219 | 6.0 | 8.0 | 0.00 | 0.00 | 0.00 | 31 | |
| 20260503194121 | 63 | 275 | 9.0 | 15.0 | 0.00 | 0.00 | 0.00 | 31 | |
| 20260503193619 | 63 | 204 | 7.0 | 10.0 | 0.00 | 0.00 | 0.00 | 31 | |
| 20260503193114 | 63 | 188 | 4.0 | 8.0 | 0.00 | 0.00 | 0.00 | 30 | |
| 20260503192610 | 62 | 177 | 3.0 | 3.0 | 0.00 | 0.00 | 0.00 | 29 | |
| 20260503192106 | 62 | 281 | 3.0 | 9.0 | 0.00 | 0.00 | 0.00 | 30 | |
| 20260503191603 | 61 | 235 | 3.0 | 9.0 | 0.00 | 0.00 | 0.00 | 32 | |
| 20260503191059 | 61 | 242 | 8.0 | 14.0 | 0.00 | 0.00 | 0.00 | 32 | |
| 20260503190556 | 61 | 256 | 12.0 | 15.0 | 0.00 | 0.00 | 0.00 | 31 | |
| 20260503190054 | 59 | 243 | 5.0 | 7.0 | 0.00 | 0.00 | 0.00 | 33 | |
| 20260503185550 | 60 | 260 | 9.0 | 13.0 | 0.00 | 0.00 | 0.00 | 33 | |
| 20260503185050 | 64 | 250 | 5.0 | 7.0 | 0.00 | 0.00 | 0.00 | 33 | |
| 20260503184546 | 63 | 96 | 1.0 | 2.0 | 0.00 | 0.00 | 0.00 | 31 | |
| 20260503184043 | 60 | 143 | 1.0 | 6.0 | 0.00 | 0.00 | 0.00 | 33 | |
| 20260503183539 | 61 | 138 | 4.0 | 7.0 | 0.00 | 0.00 | 0.00 | 33 | |
| 20260503183037 | 59 | 170 | 0.0 | 6.0 | 0.00 | 0.00 | 0.00 | 32 | |
| 20260503182535 | 59 | 253 | 7.0 | 15.0 | 0.00 | 0.00 | 0.00 | 34 | |
| 20260503182033 | 60 | 261 | 6.0 | 8.0 | 0.00 | 0.00 | 0.00 | 33 | |
| 20260503181529 | 59 | 214 | 4.0 | 6.0 | 0.00 | 0.00 | 0.00 | 33 | |
| 20260503181025 | 59 | 251 | 7.0 | 8.0 | 0.00 | 0.00 | 0.00 | 33 | |
| 20260503180523 | 58 | 42 | 6.0 | 8.0 | 0.00 | 0.00 | 0.00 | 34 | |
| 20260503180020 | 59 | 233 | 10.0 | 15.0 | 0.00 | 0.00 | 0.00 | 36 | |
| 20260503175518 | 59 | 175 | 5.0 | 13.0 | 0.00 | 0.00 | 0.00 | 35 | |
| 20260503175014 | 57 | 279 | 9.0 | 17.0 | 0.00 | 0.00 | 0.00 | 36 | |
| 20260503174512 | 59 | 208 | 2.0 | 11.0 | 0.00 | 0.00 | 0.00 | 36 | |
| 20260503174008 | 57 | 160 | 0.0 | 3.0 | 0.00 | 0.00 | 0.00 | 36 | |
| 20260503173503 | 57 | 284 | 8.0 | 10.0 | 0.00 | 0.00 | 0.00 | 36 | |
| 20260503173000 | 56 | 263 | 7.0 | 9.0 | 0.00 | 0.00 | 0.00 | 39 | |
| 20260503172457 | 56 | 235 | 6.0 | 11.0 | 0.00 | 0.00 | 0.00 | 37 | |
| 20260503171954 | 56 | 268 | 7.0 | 15.0 | 0.00 | 0.00 | 0.00 | 38 | |
| 20260503171450 | 55 | 252 | 8.0 | 10.0 | 0.00 | 0.00 | 0.00 | 37 | |
| 20260503170948 | 55 | 247 | 6.0 | 21.0 | 0.00 | 0.00 | 0.00 | 39 | |
| 20260503170444 | 56 | 259 | 9.0 | 16.0 | 0.00 | 0.00 | 0.00 | 38 | |
| 20260503150837 | 52 | 147 | 2.0 | 6.0 | 0.00 | 0.00 | 0.00 | 40 | |
| 20260503150333 | 52 | 260 | 6.0 | 17.0 | 0.00 | 0.00 | 0.00 | 41 | |
| 20260503140257 | 50 | 9 | 3.0 | 7.0 | 0.00 | 0.00 | 0.00 | 45 | |
| 20260503131227 | 48 | 239 | 5.0 | 11.0 | 0.00 | 0.00 | 0.00 | 49 | |
| 20260503130724 | 48 | 239 | 6.0 | 13.0 | 0.00 | 0.00 | 0.00 | 49 | |
| 20260503130221 | 50 | 223 | 3.0 | 4.0 | 0.00 | 0.00 | 0.00 | 47 | |
| 20260503120147 | 45 | 261 | 9.0 | 11.0 | 0.00 | 0.00 | 0.00 | 54 | |
| 20260503110615 | 44 | 98 | 3.0 | 4.0 | 0.00 | 0.00 | 0.00 | 64 | |
| 20260503110112 | 46 | 141 | 0.0 | 1.0 | 0.00 | 0.00 | 0.00 | 62 | |
| 20260503090501 | 43 | 67 | 1.0 | 8.0 | 0.00 | 0.00 | 0.00 | 62 | |
| 20260503081428 | 44 | 225 | 4.0 | 8.0 | 0.00 | 0.00 | 0.00 | 62 | |
| 20260503080925 | 44 | 161 | 0.0 | 1.0 | 0.00 | 0.00 | 0.00 | 62 | |
| 20260503080421 | 44 | 170 | 1.0 | 3.0 | 0.00 | 0.00 | 0.00 | 60 | |
| 20260503072858 | 42 | 199 | 1.0 | 2.0 | 0.00 | 0.00 | 0.00 | 71 | |
| 20260503072355 | 42 | 168 | 0.0 | 2.0 | 0.00 | 0.00 | 0.00 | 70 | |
| 20260503071851 | 42 | 172 | 0.0 | 1.0 | 0.00 | 0.00 | 0.00 | 71 | |
| 20260503071349 | 42 | 157 | 0.0 | 0.0 | 0.00 | 0.00 | 0.00 | 72 | |
| 20260503070844 | 42 | 152 | 0.0 | 0.0 | 0.00 | 0.00 | 0.00 | 72 | |
| 20260503070343 | 42 | 191 | 2.0 | 2.0 | 0.00 | 0.00 | 0.00 | 71 | |
| 20260503060314 | 44 | 191 | 1.0 | 1.0 | 0.00 | 0.00 | 0.00 | 65 | |
| 20260503054801 | 43 | 53 | 3.0 | 3.0 | 0.00 | 0.00 | 0.00 | 66 | |
| 20260503054258 | 43 | 170 | 0.0 | 1.0 | 0.00 | 0.00 | 0.00 | 66 | |
| 20260503053756 | 44 | 86 | 1.0 | 2.0 | 0.00 | 0.00 | 0.00 | 64 | |
| 20260503053254 | 43 | 346 | 0.0 | 3.0 | 0.00 | 0.00 | 0.00 | 67 | |
| 20260503052750 | 44 | 61 | 1.0 | 1.0 | 0.00 | 0.00 | 0.00 | 72 | |
| 20260503052248 | 44 | 150 | 0.0 | 0.0 | 0.00 | 0.00 | 0.00 | 70 | |
| 20260503051742 | 45 | 149 | 0.0 | 2.0 | 0.00 | 0.00 | 0.00 | 67 | |
| 20260503051240 | 45 | 220 | 1.0 | 3.0 | 0.00 | 0.00 | 0.00 | 61 | |
| 20260503050736 | 46 | 115 | 0.0 | 1.0 | 0.00 | 0.00 | 0.00 | 59 | |
| 20260503050232 | 46 | 79 | 2.0 | 7.0 | 0.00 | 0.00 | 0.00 | 60 | |
| 20260503045730 | 45 | 154 | 2.0 | 4.0 | 0.00 | 0.00 | 0.00 | 60 | |
| 20260503045228 | 43 | 245 | 2.0 | 2.0 | 0.00 | 0.00 | 0.00 | 74 | |
| 20260503044724 | 44 | 109 | 0.0 | 2.0 | 0.00 | 0.00 | 0.00 | 69 | |
| 20260503044221 | 44 | 112 | 2.0 | 3.0 | 0.00 | 0.00 | 0.00 | 68 | |
| 20260503043718 | 45 | 185 | 1.0 | 1.0 | 0.00 | 0.00 | 0.00 | 63 | |
| 20260503043216 | 45 | 175 | 0.0 | 1.0 | 0.00 | 0.00 | 0.00 | 64 | |
| 20260503042711 | 45 | 102 | 0.0 | 1.0 | 0.00 | 0.00 | 0.00 | 62 | |
| 20260503042208 | 46 | 240 | 3.0 | 3.0 | 0.00 | 0.00 | 0.00 | 64 | |
| 20260503041704 | 47 | 83 | 1.0 | 2.0 | 0.00 | 0.00 | 0.00 | 59 | |
| 20260503041202 | 46 | 61 | 1.0 | 2.0 | 0.00 | 0.00 | 0.00 | 59 | |
| 20260503040659 | 47 | 155 | 0.0 | 1.0 | 0.00 | 0.00 | 0.00 | 60 | |
| 20260503040157 | 47 | 79 | 2.0 | 4.0 | 0.00 | 0.00 | 0.00 | 59 | |
| 20260503035653 | 47 | 102 | 1.0 | 3.0 | 0.00 | 0.00 | 0.00 | 59 | |
| 20260503035151 | 47 | 102 | 0.0 | 2.0 | 0.00 | 0.00 | 0.00 | 59 | |
| 20260503034648 | 47 | 60 | 2.0 | 9.0 | 0.00 | 0.00 | 0.00 | 58 | |
| 20260503034145 | 47 | 127 | 2.0 | 2.0 | 0.00 | 0.00 | 0.00 | 58 | |
| 20260503033642 | 48 | 224 | 2.0 | 3.0 | 0.00 | 0.00 | 0.00 | 58 | |
| 20260503033140 | 48 | 68 | 2.0 | 6.0 | 0.00 | 0.00 | 0.00 | 57 | |
| 20260503032638 | 48 | 47 | 2.0 | 3.0 | 0.00 | 0.00 | 0.00 | 56 | |
| 20260503032136 | 48 | 152 | 0.0 | 4.0 | 0.00 | 0.00 | 0.00 | 56 | |
| 20260503031633 | 49 | 134 | 1.0 | 2.0 | 0.00 | 0.00 | 0.00 | 55 | |
| 20260503031131 | 49 | 156 | 0.0 | 3.0 | 0.00 | 0.00 | 0.00 | 55 | |
| 20260503030626 | 50 | 234 | 5.0 | 7.0 | 0.00 | 0.00 | 0.00 | 54 | |
| 20260503030123 | 50 | 260 | 4.0 | 6.0 | 0.00 | 0.00 | 0.00 | 54 | |
| 20260503025620 | 50 | 263 | 3.0 | 10.0 | 0.00 | 0.00 | 0.00 | 53 | |
| 20260503025118 | 50 | 326 | 1.0 | 6.0 | 0.00 | 0.00 | 0.00 | 52 | |
| 20260503024614 | 51 | 288 | 2.0 | 9.0 | 0.00 | 0.00 | 0.00 | 51 | |
| 20260503024111 | 51 | 356 | 3.0 | 8.0 | 0.00 | 0.00 | 0.00 | 49 | |
| 20260503023609 | 51 | 240 | 3.0 | 6.0 | 0.00 | 0.00 | 0.00 | 50 | |
| 20260503023106 | 51 | 133 | 2.0 | 6.0 | 0.00 | 0.00 | 0.00 | 51 | |
| 20260503022601 | 51 | 156 | 3.0 | 4.0 | 0.00 | 0.00 | 0.00 | 49 | |
| 20260503022056 | 51 | 112 | 1.0 | 1.0 | 0.00 | 0.00 | 0.00 | 49 | |
| 20260503021553 | 52 | 48 | 2.0 | 7.0 | 0.00 | 0.00 | 0.00 | 50 | |
| 20260503021050 | 52 | 350 | 4.0 | 8.0 | 0.00 | 0.00 | 0.00 | 48 | |
| 20260503020547 | 52 | 114 | 1.0 | 3.0 | 0.00 | 0.00 | 0.00 | 48 | |
| 20260503020044 | 52 | 88 | 3.0 | 7.0 | 0.00 | 0.00 | 0.00 | 49 | |
| 20260503015541 | 52 | 164 | 0.0 | 3.0 | 0.00 | 0.00 | 0.00 | 48 | |
| 20260503015038 | 52 | 57 | 2.0 | 4.0 | 0.00 | 0.00 | 0.00 | 48 | |
| 20260503014534 | 52 | 161 | 0.0 | 4.0 | 0.00 | 0.00 | 0.00 | 49 | |
| 20260503014032 | 52 | 134 | 1.0 | 2.0 | 0.00 | 0.00 | 0.00 | 46 | |
| 20260503013529 | 53 | 52 | 2.0 | 3.0 | 0.00 | 0.00 | 0.00 | 46 | |
| 20260503013027 | 53 | 177 | 1.0 | 2.0 | 0.00 | 0.00 | 0.00 | 46 | |
| 20260503012524 | 53 | 227 | 2.0 | 2.0 | 0.00 | 0.00 | 0.00 | 44 | |
| 20260503012020 | 53 | 171 | 3.0 | 4.0 | 0.00 | 0.00 | 0.00 | 44 | |
| 20260503011517 | 53 | 280 | 4.0 | 6.0 | 0.00 | 0.00 | 0.00 | 43 | |
| 20260503011014 | 53 | 114 | 2.0 | 4.0 | 0.00 | 0.00 | 0.00 | 43 | |
| 20260503010510 | 53 | 248 | 6.0 | 10.0 | 0.00 | 0.00 | 0.00 | 43 | |
| 20260503010008 | 54 | 278 | 3.0 | 7.0 | 0.00 | 0.00 | 0.00 | 41 | |
| 20260503005505 | 54 | 268 | 4.0 | 7.0 | 0.00 | 0.00 | 0.00 | 41 | |
| 20260503005002 | 53 | 263 | 2.0 | 3.0 | 0.00 | 0.00 | 0.00 | 42 | |
| 20260503004458 | 54 | 227 | 2.0 | 4.0 | 0.00 | 0.00 | 0.00 | 43 | |
| 20260503003956 | 54 | 251 | 3.0 | 4.0 | 0.00 | 0.00 | 0.00 | 42 | |
| 20260503003452 | 54 | 198 | 2.0 | 2.0 | 0.00 | 0.00 | 0.00 | 42 | |
| 20260503002949 | 54 | 179 | 2.0 | 6.0 | 0.00 | 0.00 | 0.00 | 40 | |
| 20260503002447 | 54 | 0 | 6.0 | 8.0 | 0.00 | 0.00 | 0.00 | 43 | |
| 20260503001943 | 54 | 273 | 6.0 | 7.0 | 0.00 | 0.00 | 0.00 | 41 | |
| 20260503001440 | 54 | 249 | 2.0 | 4.0 | 0.00 | 0.00 | 0.00 | 41 | |
| 20260503000937 | 54 | 207 | 3.0 | 7.0 | 0.00 | 0.00 | 0.00 | 40 | |
| 20260503000434 | 54 | 217 | 2.0 | 4.0 | 0.00 | 0.00 | 0.00 | 40 | |
| 20260502235932 | 55 | 254 | 4.0 | 7.0 | 0.00 | 0.00 | 0.00 | 38 | |
| 20260502235428 | 55 | 252 | 7.0 | 10.0 | 0.00 | 0.00 | 0.00 | 37 | |
| 20260502234926 | 55 | 208 | 1.0 | 4.0 | 0.00 | 0.00 | 0.00 | 39 | |
| 20260502234422 | 55 | 275 | 6.0 | 11.0 | 0.00 | 0.00 | 0.00 | 37 | |
| 20260502233919 | 55 | 271 | 8.0 | 13.0 | 0.00 | 0.00 | 0.00 | 38 | |
| 20260502233414 | 55 | 51 | 4.0 | 8.0 | 0.00 | 0.00 | 0.00 | 37 | |
| 20260502232912 | 55 | 240 | 1.0 | 2.0 | 0.00 | 0.00 | 0.00 | 40 | |
| 20260502232408 | 55 | 212 | 3.0 | 7.0 | 0.00 | 0.00 | 0.00 | 39 | |
| 20260502231905 | 55 | 258 | 4.0 | 9.0 | 0.00 | 0.00 | 0.00 | 39 | |
| 20260502231403 | 55 | 251 | 6.0 | 9.0 | 0.00 | 0.00 | 0.00 | 39 | |
| 20260502230901 | 55 | 210 | 1.0 | 3.0 | 0.00 | 0.00 | 0.00 | 40 |